Home   Weather   Tilburg   Past weeks

Flag for Netherlands Past Weather in Tilburg, Netherlands — Yesterday and Last 2 Weeks

Now
34 °F

Fog.


Feels Like: 30 °F
Forecast: 31 / 41 °F
Wind: 5 mph from Northeast

Location: Gilze-Rijen

Current Time: Dec 2, 2016 at 11:18:50 pm

Latest Report: Dec 2, 2016 at 11:04 pm


Visibility: 1 mi

Pressure: 30.27 "Hg

Humidity: 100%

Dew Point: 34 °F

Location of TilburgLocation

Past Weather in Tilburg — Graph

°F

Tilburg Temperature Yesterday

Maximum temperature yesterday: 46 °F (at 6:25 pm)
Minimum temperature yesterday: 37 °F (at 12:25 am)
Average temperature yesterday: 43 °F

High & Low Weather Summary for the Past Weeks

 TemperatureHumidityPressure
High59 °F (Nov 21, 12:25 pm)100% (Nov 17, 10:55 pm)30.57 "Hg (Nov 17, 10:55 pm)
Low19 °F (Nov 29, 11:55 pm)48% (Nov 29, 2:55 pm)29.12 "Hg (Nov 20, 9:25 am)
Average42 °F85%30.00 "Hg
* Reported Nov 17 9:25 pm — Dec 2 9:59 pm, Tilburg, Weather by CustomWeather, © 2016

Note: Actual official high and low records may vary slightly from our data, if they occured in-between our weather recording intervals... More about our weather records

Advertising

Tilburg Weather History for the Previous 24 Hours

Scroll right to see more
 ConditionsComfort  
Time TempWeatherWind HumidityBarometerVisibility
9:59 pm
Fri, Dec 2
34 °FFog.5 mph100%30.27 "Hg1 mi
9:25 pm36 °FFog.3 mph100%30.27 "Hg2 mi
8:55 pm36 °FFog.3 mph100%30.27 "Hg1 mi
8:25 pm39 °FFog.3 mph93%30.27 "Hg3 mi
8:03 pm37 °FFog.3 mph100%30.27 "Hg4 mi
7:59 pm37 °FFog.3 mph100%30.27 "Hg5 mi
7:25 pm37 °FChilly.3 mph100%30.24 "HgN/A
6:55 pm39 °FChilly.5 mph100%30.24 "HgN/A
6:25 pm43 °FPassing clouds.5 mph87%30.24 "HgN/A
5:55 pm43 °FFog.3 mph100%30.24 "Hg4 mi
5:25 pm43 °FOvercast.1 mph100%30.24 "HgN/A
4:55 pm45 °FOvercast.2 mph93%30.24 "HgN/A
4:25 pm45 °FOvercast.5 mph93%30.24 "HgN/A
3:55 pm45 °FLight rain. Mostly cloudy.9 mph93%30.24 "Hg5 mi
3:01 pm46 °FMore clouds than sun.6 mph93%30.24 "HgN/A
2:25 pm46 °FPartly sunny.6 mph93%30.24 "HgN/A
1:56 pm46 °FRain showers. Broken clouds.10 mph93%30.24 "Hg3 mi
1:55 pm46 °FRain showers. Broken clouds.12 mph93%30.24 "Hg3 mi
1:25 pm50 °FOvercast.7 mph88%30.21 "HgN/A
12:55 pm50 °FLight rain. Mostly cloudy.9 mph88%30.21 "Hg5 mi
12:25 pm50 °FBroken clouds.8 mph88%30.24 "HgN/A
12:02 pm50 °FBroken clouds.8 mph88%30.24 "HgN/A
11:55 am50 °FMostly cloudy.7 mph88%30.24 "HgN/A
11:25 am48 °FMostly cloudy.8 mph94%30.24 "HgN/A
10:55 am48 °FOvercast.6 mph94%30.24 "HgN/A
10:25 am46 °FBroken clouds.8 mph93%30.24 "HgN/A
9:55 am46 °FOvercast.7 mph93%30.24 "HgN/A
9:25 am45 °FDrizzle. Broken clouds.6 mph100%30.24 "HgN/A
8:55 am45 °FBroken clouds.3 mph93%30.24 "HgN/A
8:25 am45 °FPartly cloudy.5 mph93%30.21 "HgN/A
7:55 am43 °FPassing clouds.7 mph100%30.21 "HgN/A
7:25 am45 °FMostly cloudy.8 mph93%30.21 "HgN/A
7:00 am46 °FMostly cloudy.7 mph87%30.21 "HgN/A
6:25 am46 °FPartly cloudy.9 mph87%30.21 "HgN/A
5:55 am46 °FPassing clouds.7 mph87%30.21 "HgN/A
5:25 am46 °FPartly cloudy.6 mph87%30.21 "HgN/A
4:55 am48 °FPartly cloudy.7 mph82%30.21 "HgN/A
4:25 am46 °FMostly cloudy.8 mph93%30.21 "HgN/A
3:55 am46 °FOvercast.7 mph93%30.21 "HgN/A
3:25 am46 °FOvercast.6 mph93%30.21 "HgN/A
2:55 am46 °FOvercast.7 mph93%30.24 "HgN/A
2:25 am46 °FFog.7 mph93%30.24 "Hg6 mi
1:55 am46 °FFog.7 mph93%30.24 "Hg5 mi
1:25 am46 °FFog.6 mph93%30.24 "Hg4 mi
12:55 am46 °FFog.6 mph93%30.24 "Hg4 mi
12:25 am46 °FFog.6 mph93%30.24 "Hg4 mi
11:55 pm
Thu, Dec 1
45 °FFog.5 mph100%30.24 "Hg5 mi
11:25 pm46 °FFog.6 mph93%30.24 "Hg4 mi
Weather by CustomWeather, © 2016

See weather overviewHow to use our weather pages